Weather History for GMMX - January, 2014

Change the Weather History Date:

Monday, January 13, 2014

  Actual Average Record
Temperature  
Mean Temperature 56 °F -  
Max Temperature 67 °F 65 °F 78 °F (2007)
Min Temperature 44 °F 43 °F 33 °F (2009)
Degree Days  
Heating Degree Days 10    
Growing Degree Days 6 (Base 50)    
Moisture  
Dew Point 47 °F    
Average Humidity 72    
Maximum Humidity 94    
Minimum Humidity 43    
Precipitation  
Precipitation 0.02 in 0.05 in - ()
Sea Level Pressure  
Sea Level Pressure 30.29 in    
Wind  
Wind Speed 5 mph ()    
Max Wind Speed 9 mph    
Max Gust Speed -    
Visibility 5.0 miles    
Events      
Averages and records for this station are not official NWS values.
T = Trace of Precipitation, MM = Missing Value Source: Averaged Metar Reports

Daily Weather History Graph

Daily Weather History Graph

Search for Another Location

Airport or City:

Trip Planner

Search our weather history database for the weather conditions in past years. The results will help you decide how hot, cold, wet, or windy it might be!

Date:

Astronomy

Jan. 13, 2014 Rise Set
Actual Time 7:32 AM WET 5:49 PM WET
Civil Twilight 7:06 AM WET 6:15 PM WET
Nautical Twilight 6:36 AM WET 6:45 PM WET
Astronomical Twilight 6:06 AM WET 7:15 PM WET
Moon 3:52 PM WET (1/13) 5:11 AM WET (1/13)
Length of Visible Light 11h 09m
Length of Day
10h 16m
Waxing Gibbous, 94% of the Moon is Illuminated
Jan 13
Waxing Gibbous
Jan 16
Full
Jan 24
Last Quarter
Jan 30
New
Feb 6
First Quarter

Hourly Weather History & Observations

Time (WET) Temp. Windchill Dew Point Humidity Pressure Visibility Wind Dir Wind Speed Gust Speed Precip Events Conditions
12:00 AM 54 °F - 49 °F 79% 30.33 in 6 mi SW 8.1 mph - -  
12:00 AM 53.6 °F - 50.0 °F 88% 30.33 in - SW 8.1 mph - N/A   Unknown
1:00 AM 53.6 °F - 48.2 °F 82% 30.30 in 5.0 mi SSW 4.6 mph - N/A   Unknown
2:00 AM 50.0 °F - 46.4 °F 87% 30.30 in 5.0 mi Variable 1.2 mph - N/A   Unknown
3:00 AM 49 °F - 46 °F 87% 30.31 in 5 mi East 2.3 mph - -  
3:00 AM 50.0 °F - 46.4 °F 87% 30.27 in 5.0 mi East 2.3 mph - N/A   Unknown
4:00 AM 46.4 °F 44.3 °F 44.6 °F 93% 30.27 in 5.0 mi ESE 4.6 mph - N/A   Unknown
5:00 AM 46.4 °F 44.3 °F 42.8 °F 87% 30.30 in 5.0 mi SW 4.6 mph - N/A   Unknown
6:00 AM 45 °F - 42 °F 84% 30.32 in 5 mi East 3.5 mph - -  
6:00 AM 44.6 °F 43.1 °F 41.0 °F 87% 30.27 in 5.0 mi East 3.5 mph - N/A   Unknown
7:00 AM 44.6 °F 42.2 °F 41.0 °F 87% 30.30 in 5.0 mi ESE 4.6 mph - N/A   Unknown
8:00 AM 50.0 °F - 44.6 °F 82% 30.30 in 5.0 mi SE 4.6 mph - N/A   Unknown
9:00 AM 56 °F - 44 °F 55% 30.34 in 5 mi ESE 4.6 mph - -   Clear
9:00 AM 55.4 °F - 44.6 °F 67% 30.33 in 5.0 mi ESE 4.6 mph - N/A   Unknown
10:00 AM 57.2 °F - 46.4 °F 67% 30.33 in 5.0 mi Variable 2.3 mph - N/A   Unknown
11:00 AM 59.0 °F - 46.4 °F 63% 30.33 in 3.7 mi WSW 6.9 mph - N/A   Scattered Clouds
12:00 PM 63 °F - 49 °F 50% 30.30 in 5 mi WNW 9.2 mph - -   Scattered Clouds
12:00 PM 62.6 °F - 50.0 °F 63% 30.33 in 5.0 mi WNW 9.2 mph - N/A   Scattered Clouds
1:00 PM 64.4 °F - 50.0 °F 59% 30.30 in 5.0 mi North - - N/A   Scattered Clouds
2:00 PM 64.4 °F - 48.2 °F 56% 30.27 in 5.0 mi West 8.1 mph - N/A   Mostly Cloudy
3:00 PM 66 °F - 49 °F 43% 30.22 in 5 mi West 8.1 mph - -   Scattered Clouds
3:00 PM 66.2 °F - 50.0 °F 56% 30.24 in 5.0 mi West 6.9 mph - N/A   Mostly Cloudy
4:00 PM 66.2 °F - 48.2 °F 52% 30.24 in 5.0 mi WNW 8.1 mph - N/A   Mostly Cloudy
5:00 PM 64.4 °F - 46.4 °F 52% 30.27 in 5.0 mi West 9.2 mph - N/A   Mostly Cloudy
6:00 PM 63 °F - 47 °F 45% 30.24 in 5 mi West 5.8 mph - -   Scattered Clouds
6:00 PM 62.6 °F - 48.2 °F 59% 30.27 in 5.0 mi West 5.8 mph - N/A   Mostly Cloudy
7:00 PM 62.6 °F - 50.0 °F 63% 30.27 in 5.0 mi NNW 9.2 mph - N/A   Mostly Cloudy
9:00 PM 57 °F - 53 °F 82% 30.31 in 5 mi NNE 9.2 mph - -   Partly Cloudy
9:00 PM 57.2 °F - 53.6 °F 88% 30.30 in 5.0 mi NNE 9.2 mph - N/A   Mostly Cloudy
10:00 PM 55.4 °F - 53.6 °F 94% 30.33 in 5.0 mi NNE 9.2 mph - N/A   Mostly Cloudy
11:00 PM 55.4 °F - 51.8 °F 88% - 5.0 mi NE 9.2 mph - N/A   Mostly Cloudy